Location: Argonnex
(45.9500°N, 6.1333°E)
Time: 18:06:14
(UTC+00:00)

Meteor 2-5 Rocket - Pass Details

Date: 28 January 2023
Orbit: 833 x 911 km, 81.2° (Epoch: 30 March)

Event Time Altitude Azimuth Distance (km) Brightness Sun altitude
Rises 17:12:01 0° 198° (SSW) 3,512 7.5 -6.8°
Reaches altitude 10° 17:14:31 10° 201° (SSW) 2,568 6.8 -7.3°
Maximum altitude 17:20:20 65° 283° (WNW) 974 4.3 -8.2°
Drops below altitude 10° 17:26:05 10° 6° (N) 2,536 6.0 -9.2°
Sets 17:28:32 0° 9° (N) 3,466 6.6 -9.6°
